This is the latest recevied weather packets stored in our database for station/object N5PER. If no packets are shown the sender has not sent any weather packets the latest 10 day(s).
| Time | Temp. | Humidity | Pressure | Rain* | Wind** | Luminosity | Snow |
|---|---|---|---|---|---|---|---|
| 1788556065 | 34.44° C | 54% | 1009.9 hPa | 0 mm | - | 699 W/m² | - |
| 1788555759 | 35° C | 54% | 1010 hPa | 0 mm | - | 623 W/m² | - |
| 1788555455 | 33.89° C | 56% | 1010.2 hPa | 0 mm | - | 571 W/m² | - |
| 1788555151 | 33.89° C | 58% | 1010.3 hPa | 0 mm | - | 602 W/m² | - |
| 1788554847 | 33.89° C | 59% | 1010.5 hPa | 0 mm | - | 666 W/m² | - |
| 1788554543 | 33.89° C | 56% | 1010.5 hPa | 0 mm | - | 392 W/m² | - |
| 1788554239 | 33.33° C | 58% | 1010.4 hPa | 0 mm | - | 452 W/m² | - |
| 1788553935 | 33.89° C | 60% | 1010.7 hPa | 0 mm | - | 296 W/m² | - |
| 1788553631 | 33.89° C | 60% | 1010.9 hPa | 0 mm | - | 642 W/m² | - |
| 1788553327 | 32.78° C | 61% | 1010.7 hPa | 0 mm | - | 870 W/m² | - |
| 1788553022 | 32.78° C | 61% | 1010.8 hPa | 0 mm | - | 293 W/m² | - |
| 1788552722 | 33.33° C | 59% | 1010.9 hPa | 0 mm | - | 213 W/m² | - |
| 1788552416 | 33.33° C | 61% | 1010.7 hPa | 0 mm | - | 568 W/m² | - |
| 1788552112 | 32.78° C | 62% | 1010.7 hPa | 0 mm | - | 876 W/m² | - |
| 1788551810 | 32.78° C | 63% | 1010.8 hPa | 0 mm | - | 894 W/m² | - |
| 1788551510 | 32.78° C | 64% | 1011 hPa | 0 mm | - | 845 W/m² | - |
| 1788551204 | 31.67° C | 69% | 1011 hPa | 0 mm | - | 933 W/m² | - |
| 1788550904 | 31.11° C | 70% | 1011.1 hPa | 0 mm | - | 930 W/m² | - |
| 1788550599 | 31.11° C | 69% | 1011.3 hPa | 0 mm | - | 569 W/m² | - |
| 1788550296 | 31.11° C | 72% | 1011.4 hPa | 0 mm | - | 927 W/m² | - |
| 1788549995 | 30.56° C | 74% | 1011 hPa | 0 mm | - | 912 W/m² | - |
| 1788549691 | 30° C | 78% | 1011.4 hPa | 0 mm | - | 883 W/m² | - |
| 1788549387 | 29.44° C | 82% | 1011.3 hPa | 0 mm | - | 927 W/m² | - |
| 1788549084 | 28.89° C | 83% | 1011.4 hPa | 0 mm | - | 952 W/m² | - |
| 1788548779 | 28.89° C | 83% | 1011.7 hPa | 0 mm | - | 968 W/m² | - |
* Rain latest hour (hover to see other rain measurements)
** Current wind speed in m/s (hover to see current wind gust speed)